Asiasat 3

operational
NORAD ID: 25126 Int'l Des: 1997-086 Owner: ASIA Country: HK
MEOCIRCULAR

Asiasat 3について

説明を読み込み中...

リアルタイム位置

3D地球を読み込み中...

次回通過

高度履歴

Altitude vs Time

uPlot chart will show altitude changes over time

軌道要素

1 25126U 97086A 25278.42851991 -.00000253 00000-0 00000+0 0 9999
2 25126 12.7584 34.0199 0047251 45.2004 11.9815 1.00365320102586
Epoch: Oct 5, 2025 • Age: 18 hours

現在のステータス

高度 35703.2 km
速度 3.08 km/s
衛星直下点 -6.01°S, 77.12°W
打ち上げ日 Dec 24, 1997
運用期間 27.7 years
タイプ other

技術仕様

分類 Payload
質量 3480.00 kg
乾燥質量 1822.00 kg
総質量 3480.00 kg
長さ 4.00 m
直径 3.10 m
スパン 26.20 m
形状 Box + 2 Pan
製造者 HSES
バスタイプ HS-601HP
フェーズステータス Renamed
所有者/国 ASIA/HK

大規模コンステレーション

Loading constellations...